Theta_e
300 293 286 286 289 297 296 296 296 295 294 294 294 292 291 289 290 293 291 293 294 291 290 292 293 293 294 296 298 299 299 297 296 296 297 297 298 298 297 297 297 296 296 300 301 300 303 304 303 303 302 302 301 301 304 304 303 304 304 303 302 303 303 303 303 302 302 302 301 301 301 301 301 302 302 303 302 302 301 302 302 301 302 302 302 302
303 292 289 294 294 294 294 295 296 295 295 294 290 291 287 292 288 295 295 293 294 291 290 292 293 293 295 297 299 300 298 298 298 296 297 297 298 299 299 298 298 298 302 301 300 303 304 303 303 302 302 301 300 301 303 304 303 303 303 303 303 303 303 302 303 302 303 303 302 301 301 300 300 300 300 301 302 302 303 301 301 301 301 301 301 301
292 286 293 293 295 296 295 295 295 295 293 294 290 289 288 289 295 293 292 292 295 293 289 291 290 291 294 296 297 298 298 299 300 300 299 298 298 298 299 300 299 298 300 299 301 303 303 304 304 302 301 301 301 301 302 302 302 302 302 302 303 303 303 303 304 303 303 304 305 303 302 301 300 302 302 302 302 301 301 301 300 300 301 301 300 301
289 293 292 294 294 294 294 295 294 292 294 290 289 287 284 292 291 288 292 291 293 291 289 289 288 290 294 296 296 298 299 299 300 303 301 299 299 299 299 300 300 298 300 299 300 301 302 303 303 301 301 301 301 301 301 302 302 304 303 303 303 303 303 305 304 306 305 305 304 304 303 302 301 301 302 302 302 301 301 300 300 299 299 300 299 300
293 294 294 293 293 293 293 293 293 290 288 290 291 289 289 291 289 288 290 293 295 294 292 289 288 289 293 293 296 296 295 297 299 299 297 297 300 300 299 299 301 300 301 298 298 299 301 301 301 301 301 301 301 301 301 302 303 304 302 304 304 304 305 305 305 305 304 304 302 303 303 302 302 301 301 300 299 299 299 299 298 299 299 300 299 299
291 293 293 293 293 293 292 288 288 288 286 290 291 292 291 289 290 290 292 292 288 286 290 290 283 282 289 293 294 296 295 294 295 295 295 296 297 297 297 298 300 303 301 299 298 298 300 300 300 301 301 302 301 302 303 303 303 303 303 305 304 304 304 304 304 304 303 302 301 300 299 298 298 299 299 297 297 298 297 297 298 298 298 299 298 299
291 291 292 291 292 293 293 292 291 290 285 286 288 290 291 291 290 291 290 288 284 283 287 291 282 281 289 291 293 295 295 294 296 294 295 296 296 296 297 297 298 299 300 299 298 298 299 299 300 300 302 302 301 302 304 304 304 305 305 305 304 304 304 304 304 303 303 301 300 300 299 299 299 299 298 298 298 298 298 299 297 297 298 298 298 298
290 291 290 289 291 291 291 288 292 292 286 285 289 290 292 290 290 290 287 285 283 287 286 288 287 280 282 290 293 295 294 294 295 295 296 296 297 296 296 296 297 298 298 299 298 299 299 299 300 300 302 302 302 305 304 304 304 304 304 304 304 304 304 304 304 304 304 303 301 300 300 301 300 299 297 298 298 298 298 297 297 296 297 297 297 297
290 290 290 288 289 287 286 289 289 291 289 288 289 291 290 290 290 289 287 285 286 283 283 283 285 281 280 287 293 296 292 292 293 295 295 296 296 296 296 296 297 298 299 299 298 299 299 299 300 301 301 302 303 303 303 304 304 304 304 303 302 303 303 303 303 304 304 304 303 303 302 299 299 299 298 298 298 297 297 296 296 296 296 296 296 296
292 292 291 293 290 286 288 288 287 289 287 290 291 291 291 290 290 289 286 286 285 284 281 282 283 280 280 288 291 292 291 291 293 296 295 296 296 296 296 295 298 298 299 298 299 299 299 300 300 300 301 302 302 303 304 304 303 303 303 302 302 301 302 303 303 304 303 302 304 302 300 298 297 298 297 296 296 296 296 295 295 295 295 295 295 295
293 295 293 292 289 291 287 288 289 289 290 291 291 291 289 288 286 286 285 284 283 280 282 283 284 282 279 285 289 290 293 294 295 296 297 297 296 297 296 297 297 298 299 298 298 299 300 300 300 302 302 303 303 303 303 303 302 302 302 301 301 301 301 302 302 302 302 301 302 301 300 298 297 296 296 296 296 295 295 295 294 294 294 294 294 294
292 291 291 291 292 293 291 288 289 290 290 291 288 287 285 286 285 283 283 284 281 280 283 283 286 286 277 282 290 293 294 295 295 294 295 294 295 296 296 297 298 297 298 298 298 299 299 300 300 301 301 301 301 301 301 301 301 301 301 301 300 300 300 300 301 301 301 301 300 299 299 298 298 297 297 296 295 295 295 294 294 293 293 293 294 292
289 288 290 290 292 292 289 289 288 290 290 288 286 286 283 282 283 281 282 278 279 280 283 284 286 282 281 287 291 294 295 296 296 296 296 296 295 296 296 297 297 297 297 298 298 299 300 300 300 300 300 300 299 300 301 301 301 301 300 300 299 299 299 300 300 300 300 299 299 300 299 298 298 297 297 296 295 295 294 294 293 293 292 292 292 291
287 288 290 290 290 290 292 287 285 284 285 287 284 284 282 280 279 275 280 282 282 282 282 282 287 280 285 290 294 294 295 293 294 296 296 296 297 296 296 297 297 298 298 298 299 299 299 299 299 299 299 299 299 299 300 300 300 300 300 299 298 298 298 298 298 299 299 298 299 299 299 298 298 297 297 296 296 296 295 294 293 293 292 291 291 291
283 283 287 288 286 289 290 290 287 286 285 286 288 285 283 282 280 275 281 278 279 282 282 283 280 278 281 288 295 294 293 295 293 293 293 294 295 297 296 296 296 296 296 297 298 299 299 299 299 299 299 299 299 300 300 299 300 299 298 298 298 297 297 298 298 298 297 297 298 297 297 297 297 297 296 296 296 295 295 294 294 293 292 291 291 290
286 285 287 287 288 289 289 291 291 290 287 289 288 287 282 283 285 280 282 280 279 280 279 279 279 282 286 292 295 294 294 294 294 293 294 292 294 296 296 295 296 296 296 297 298 298 298 299 299 299 299 299 299 299 299 299 299 298 298 297 297 297 297 297 297 297 297 296 297 296 296 296 296 296 295 295 295 294 294 293 293 292 291 291 290 291
284 283 286 289 290 288 287 289 290 289 283 286 286 282 284 286 287 283 279 278 278 277 276 282 284 287 292 294 295 294 294 293 292 292 292 292 292 295 295 295 295 296 295 296 298 297 298 298 299 299 299 299 299 298 298 299 298 298 298 297 296 296 296 296 296 296 296 296 295 295 295 295 294 294 294 294 293 293 293 292 291 291 290 290 290 291
283 285 286 287 286 287 288 288 289 290 289 284 282 283 287 289 287 282 278 280 280 276 278 283 280 282 283 282 291 292 292 292 291 290 291 292 292 292 294 295 296 296 296 297 298 298 298 299 299 299 299 299 299 298 298 298 298 298 297 297 296 295 295 295 296 295 295 295 294 294 294 293 293 294 293 293 292 292 291 290 290 290 289 289 289 289
287 282 284 285 286 287 288 289 287 290 290 286 284 286 284 281 281 282 280 273 273 273 277 279 281 281 282 286 287 287 290 292 292 291 291 291 292 292 293 294 295 295 296 297 298 298 299 298 299 298 298 298 298 297 297 297 298 297 296 296 296 295 295 295 295 294 295 294 294 294 293 293 293 292 292 292 292 291 290 289 289 289 288 288 288 288
289 281 283 283 286 287 284 284 281 282 288 286 288 285 283 282 280 281 281 279 281 274 274 276 280 277 288 286 289 289 291 292 292 291 291 291 292 293 294 295 295 296 296 297 297 298 298 298 298 298 298 297 297 297 297 297 296 296 296 295 295 294 294 294 294 294 293 293 293 293 292 292 291 291 291 290 290 289 289 289 288 288 287 287 287 286
285 284 280 283 283 285 281 283 282 284 281 281 282 281 281 281 284 283 281 280 279 276 276 274 276 281 289 293 292 291 292 292 293 293 294 294 293 294 294 295 296 296 297 297 297 297 298 297 297 297 296 296 295 295 295 296 295 295 295 294 294 294 293 293 293 293 292 292 292 291 291 290 290 290 290 289 289 288 287 287 287 286 286 286 286 285
284 283 280 281 281 279 283 285 285 285 285 283 283 282 283 281 280 275 277 283 281 279 275 276 277 283 292 292 293 292 292 295 296 296 296 296 295 294 295 294 296 297 297 297 296 296 297 296 296 296 295 295 295 295 295 295 294 294 294 294 294 293 293 292 292 292 292 291 291 290 290 289 289 289 288 288 287 286 286 286 285 285 285 284 285 285
286 286 284 281 282 284 285 283 284 283 282 280 283 284 284 284 283 281 274 278 278 278 276 277 275 282 292 294 292 293 293 293 294 294 294 294 295 296 295 295 296 297 297 297 296 296 296 296 296 296 295 295 294 294 294 294 294 294 293 293 293 293 292 292 292 291 291 290 290 289 289 288 288 287 287 286 285 285 285 284 284 284 284 283 283 284
292 284 282 282 283 281 281 284 284 283 283 283 281 282 281 284 284 282 282 280 280 279 278 279 276 282 291 289 290 292 291 290 291 292 292 293 293 294 296 295 296 296 296 295 295 296 296 295 294 294 294 294 293 293 293 293 293 293 293 293 292 292 292 292 291 290 290 289 289 288 288 287 287 286 285 284 284 284 283 283 283 284 283 283 283 283
282 282 283 281 281 281 281 281 280 279 281 281 281 283 283 284 283 284 283 282 279 280 279 278 277 282 295 288 288 289 289 290 291 291 291 292 293 294 294 295 295 296 296 295 295 295 295 294 294 294 293 293 293 293 293 293 293 293 293 292 292 292 292 291 290 289 289 288 288 287 287 286 286 285 284 284 284 283 283 283 282 283 282 282 282 282
284 284 283 277 275 273 274 276 280 280 279 281 282 284 283 284 284 282 277 280 277 278 283 278 280 287 291 290 292 291 289 290 291 292 292 292 293 294 294 295 296 296 296 295 295 294 295 295 293 293 293 293 293 293 293 293 293 293 292 292 292 292 291 290 289 289 288 288 287 286 285 285 285 284 284 283 283 282 282 282 282 281 282 281 281 281
284 284 283 283 282 282 283 283 284 285 281 279 282 284 283 284 284 284 282 280 279 280 280 283 285 286 288 290 291 292 292 290 291 291 293 293 293 294 294 294 294 295 296 296 295 295 293 293 294 294 293 293 292 292 292 292 292 292 292 292 292 292 291 290 289 288 287 287 286 285 285 284 284 284 283 283 282 282 281 281 281 281 280 281 280 280
283 282 284 283 284 286 286 286 285 287 283 283 283 282 284 284 284 283 282 281 285 281 279 285 287 285 287 290 292 293 293 292 293 292 292 292 294 294 294 294 295 294 294 294 294 294 294 294 294 293 293 293 293 293 292 292 292 292 292 292 292 291 290 290 288 287 287 286 285 285 284 284 284 283 283 282 282 281 281 280 280 280 280 280 279 279
283 281 284 284 285 286 285 286 285 284 284 284 284 284 283 284 283 282 283 285 284 282 281 286 284 285 289 291 293 294 295 293 292 293 293 294 295 295 294 293 293 293 293 293 295 295 295 294 294 294 293 293 292 292 292 292 292 292 291 291 291 290 290 289 288 287 286 285 284 284 284 283 283 282 282 281 281 280 280 280 279 279 279 278 278 279
282 281 281 283 282 283 284 284 284 283 282 283 283 283 285 284 284 284 285 286 285 284 287 288 287 287 290 292 294 295 296 295 294 293 293 292 292 291 291 291 292 293 293 293 294 295 295 295 295 294 293 293 292 292 292 292 292 291 291 291 290 290 289 288 287 286 285 284 284 283 283 283 282 282 281 280 280 279 279 278 278 278 278 278 277 277
282 281 285 280 278 281 283 283 283 282 282 281 282 283 284 285 285 284 285 285 285 285 287 287 286 286 291 294 294 295 296 296 294 294 294 294 293 292 292 292 291 292 293 293 293 294 295 295 295 294 293 293 293 293 292 292 292 291 291 290 290 289 288 287 286 286 285 284 284 283 282 281 281 280 280 280 279 278 278 278 278 277 277 277 276 276
281 281 281 280 277 278 280 280 281 281 279 277 278 281 283 283 281 283 283 286 284 284 285 283 282 284 290 293 293 293 294 293 292 293 293 293 292 292 292 291 291 291 291 293 294 293 293 294 294 294 294 293 293 293 292 292 291 291 290 290 289 289 287 286 286 285 284 284 283 282 282 281 280 280 279 279 278 278 277 277 277 276 276 276 275 276
279 280 279 279 277 277 278 278 279 278 273 272 273 281 284 284 285 286 286 285 287 288 283 280 283 290 291 292 290 291 291 290 289 291 291 291 291 291 291 291 291 291 291 291 292 293 293 294 294 295 294 294 294 293 293 293 291 291 291 290 289 287 286 285 285 284 284 283 283 282 281 280 279 279 279 278 278 277 277 276 276 276 275 275 275 275
279 278 280 281 277 275 273 274 275 273 272 276 283 285 286 284 284 282 283 286 288 289 287 289 290 291 291 291 290 291 291 290 292 292 292 293 291 291 290 291 291 292 291 291 292 293 293 294 294 295 295 295 294 294 294 293 292 292 291 289 287 286 285 285 284 284 283 282 282 281 281 280 279 279 278 278 277 277 276 276 275 275 275 275 275 275
280 279 279 280 277 277 272 273 276 273 275 282 285 288 288 288 287 286 287 287 288 289 290 289 290 291 292 293 292 292 292 291 290 290 289 290 291 290 291 291 291 291 291 291 291 292 292 293 293 293 293 293 293 292 292 291 291 288 288 287 286 286 285 284 284 283 283 282 281 281 280 279 279 278 278 277 277 276 275 275 275 275 275 275 274 274
280 280 280 278 279 280 276 275 267 274 279 283 288 283 283 282 282 282 282 285 288 289 289 289 290 291 292 292 293 293 291 290 288 288 290 290 291 291 291 291 292 291 291 292 291 291 291 292 293 293 294 293 291 290 290 291 289 288 287 286 286 285 284 284 283 282 282 281 280 280 280 279 278 278 277 277 276 275 275 275 275 274 275 274 274 274
280 280 281 278 279 272 275 276 278 282 283 285 285 283 283 283 280 282 280 284 287 289 290 290 291 291 292 292 292 292 288 286 285 290 292 292 292 292 293 293 292 292 292 292 292 293 293 294 293 292 291 290 291 290 290 288 288 287 285 284 284 284 283 283 282 282 282 281 280 280 279 279 278 277 277 276 275 275 275 274 274 274 274 274 273 273
278 280 279 278 277 281 276 275 275 273 274 279 285 290 290 288 285 283 281 281 286 287 289 289 289 290 290 291 292 287 285 286 285 288 290 290 292 292 292 293 292 292 292 292 294 293 292 290 290 290 291 287 288 289 288 287 287 286 285 284 284 283 283 282 282 282 282 281 280 280 279 279 278 277 276 276 275 275 275 275 274 274 274 273 273 272
276 276 275 278 277 277 276 273 273 270 277 280 283 285 284 284 286 283 281 280 285 289 290 289 289 289 289 289 286 285 285 282 284 287 290 291 291 293 293 292 293 292 292 292 291 290 287 288 288 288 288 287 288 287 287 286 286 285 284 284 283 283 282 282 282 282 282 281 280 279 279 278 278 277 276 276 275 275 274 274 274 274 274 273 273 272
274 276 277 274 272 277 275 273 274 276 277 282 282 280 281 284 285 280 274 277 286 288 289 289 289 290 289 287 288 286 285 283 285 289 290 294 293 295 294 294 293 291 291 289 288 288 287 287 288 287 287 287 288 286 286 285 285 285 284 283 283 282 282 282 283 282 281 280 279 279 278 278 277 277 276 275 275 275 274 274 273 273 273 273 272 271
273 274 277 276 277 277 279 277 278 280 284 285 282 282 281 284 282 276 274 284 285 285 287 287 288 289 289 288 287 286 288 291 292 291 291 288 287 290 289 289 289 288 288 287 287 287 286 284 285 286 285 286 285 284 284 284 284 284 284 283 282 281 282 282 281 281 280 279 278 278 277 277 277 276 276 275 275 274 274 273 273 273 272 271 271 271
272 273 275 275 275 276 278 276 277 280 283 287 285 285 283 283 275 277 287 287 286 285 286 289 289 290 289 289 288 290 291 291 290 288 286 285 287 286 285 285 285 286 285 285 285 284 283 283 283 284 284 284 283 283 283 283 283 283 283 282 282 282 281 280 280 279 278 277 277 277 276 276 276 276 275 275 274 273 273 273 273 272 272 271 270 270
277 274 273 274 275 275 274 275 274 273 281 290 285 283 284 280 285 290 285 284 288 288 287 286 289 289 290 290 290 291 290 287 288 289 288 285 285 286 286 285 285 285 284 284 283 283 283 282 283 283 283 281 281 282 282 282 282 282 282 281 282 281 280 279 279 278 277 277 276 276 275 275 275 275 274 273 273 272 271 272 271 271 270 269 269 268
281 275 273 276 279 274 274 273 275 281 283 288 287 284 284 287 290 287 287 287 286 285 286 285 285 289 290 291 290 290 289 287 286 286 286 285 284 284 284 284 284 284 284 284 285 284 283 283 283 282 281 280 280 281 281 282 281 281 281 281 280 279 278 277 277 277 276 275 275 275 274 274 274 273 273 272 272 271 271 270 270 270 269 268 268 267
282 283 283 278 281 279 279 281 283 282 287 289 290 291 290 290 291 290 289 288 288 288 286 288 289 288 288 289 288 287 286 286 288 286 286 285 284 285 285 285 285 286 286 285 285 284 283 283 282 282 280 280 280 280 280 281 281 280 280 280 278 277 276 276 275 275 274 274 273 272 272 272 271 271 271 271 271 270 270 269 269 268 268 267 267 266
285 287 286 284 283 285 287 287 287 284 286 288 290 292 290 290 290 289 288 288 288 288 289 287 287 289 289 287 288 285 286 284 284 284 284 284 285 284 284 284 285 285 285 284 283 283 283 282 281 281 280 279 279 279 280 280 280 280 281 278 277 277 276 275 275 274 274 273 272 271 271 270 270 270 270 270 270 270 269 269 268 267 267 267 266 266
280 283 282 283 284 280 280 286 286 289 287 287 290 291 291 290 290 289 288 289 289 289 289 288 289 288 287 286 286 286 286 284 284 284 284 285 285 284 284 285 286 286 286 286 285 283 282 281 281 281 280 279 279 279 279 279 280 281 280 277 277 276 276 275 274 273 272 271 270 269 269 269 268 268 268 268 268 268 268 268 267 266 265 265 265 265
279 284 283 284 282 282 283 286 285 288 289 290 290 289 289 291 291 290 290 289 289 288 288 289 287 287 285 286 287 286 286 285 284 285 285 285 284 284 285 285 285 285 285 285 284 283 281 281 281 281 280 280 279 278 279 279 280 280 277 276 276 276 275 274 273 272 270 269 269 268 268 267 266 266 266 266 266 266 266 266 266 265 264 264 264 264
281 283 277 280 282 284 287 288 287 285 287 289 289 290 291 290 289 290 291 290 290 289 289 288 287 288 286 287 285 285 285 286 284 284 284 285 284 284 284 284 284 285 285 284 283 282 282 281 281 280 280 280 280 279 279 279 277 276 276 275 275 274 273 272 271 269 268 268 267 267 266 266 265 265 264 265 265 265 265 264 264 264 264 266 265 265
283 282 281 279 280 280 282 284 283 281 283 287 289 290 291 291 290 290 290 289 288 288 289 288 286 284 285 285 285 284 284 284 283 285 283 283 283 283 283 284 284 284 284 283 282 281 281 280 280 280 280 280 279 278 277 274 274 274 274 274 274 274 272 270 269 267 267 266 266 265 265 264 264 264 263 263 263 263 264 266 266 266 264 264 266 267
283 285 284 281 281 281 286 287 288 288 288 289 290 288 289 288 287 287 287 288 288 283 283 285 283 283 283 281 282 282 282 282 282 282 282 282 283 283 283 283 284 284 284 282 281 279 280 280 279 278 278 276 275 275 273 272 272 272 272 273 273 273 271 269 267 266 265 265 264 264 264 263 263 263 263 263 262 262 262 263 266 268 267 266 266 267
Wind_Speed
1 2 3 4 4 1 2 2 1 0 0 1 1 1 3 4 5 1 3 2 1 2 7 11 11 12 16 16 14 10 7 7 10 10 10 9 9 8 8 10 9 9 8 6 9 8 9 8 7 7 6 6 6 6 6 7 7 8 9 8 7 6 6 6 6 5 5 5 4 3 5 5 4 5 4 4 4 5 3 3 3 3 3 3 4 4
0 1 5 1 1 1 2 2 2 2 1 0 1 3 5 3 6 2 2 2 1 1 4 5 9 12 15 15 14 11 7 13 12 11 12 11 9 9 9 8 9 8 4 8 7 8 8 7 7 6 7 7 8 6 7 7 8 8 7 8 7 6 6 6 7 7 6 5 6 6 5 4 4 6 6 5 4 4 3 3 3 3 4 3 4 4
2 5 1 2 1 2 1 1 2 1 0 0 1 2 3 4 2 4 3 1 1 1 8 4 9 14 16 18 20 17 14 12 10 11 12 11 10 9 9 9 6 6 7 8 8 8 8 8 7 7 6 7 8 9 9 7 7 7 7 7 7 7 7 6 6 8 4 2 2 2 3 7 5 4 5 5 4 4 4 4 4 3 3 4 3 4
2 2 3 2 2 1 1 1 0 0 0 1 2 1 4 1 2 4 0 2 3 3 4 5 11 15 14 16 16 17 12 9 4 2 3 6 9 9 9 9 9 7 10 11 11 10 9 9 8 6 7 7 7 7 7 8 8 7 7 6 7 7 6 5 2 4 5 6 5 6 6 6 5 4 5 5 4 4 4 4 3 3 3 3 3 4
2 0 0 2 1 2 1 0 2 1 2 4 4 3 3 2 1 2 4 6 7 3 2 5 9 8 8 6 5 2 3 1 2 0 1 1 0 2 3 0 5 11 10 10 9 9 10 10 9 9 8 7 8 8 8 8 8 6 7 7 7 7 6 5 5 6 6 6 5 6 7 7 6 4 4 4 4 4 4 4 4 3 3 3 4 4
2 0 1 1 1 0 0 1 2 0 3 1 1 2 1 1 2 4 4 7 5 2 0 1 8 5 3 7 9 8 2 3 1 2 5 4 3 4 3 3 1 2 8 11 12 11 11 11 9 7 8 8 8 8 7 7 7 7 6 6 6 5 5 6 5 6 7 6 8 7 7 6 4 5 5 6 6 4 4 4 3 3 3 4 4 4
1 2 1 0 1 1 2 2 1 2 1 1 1 3 3 1 1 3 4 4 3 2 2 1 1 9 9 13 9 8 7 6 1 4 5 5 5 5 6 5 4 4 5 7 7 8 10 9 10 9 9 8 9 6 6 6 6 6 6 6 6 6 5 5 5 6 6 6 6 7 7 7 8 7 3 3 5 6 5 5 4 3 3 4 4 4
2 0 1 1 0 2 1 2 1 1 0 2 0 3 1 1 1 1 2 1 4 2 4 3 5 4 8 16 3 8 6 4 3 6 6 6 6 7 6 5 6 7 5 8 9 10 10 11 12 13 10 9 8 7 7 6 6 7 7 6 6 5 5 5 5 6 6 7 7 6 6 7 6 7 6 5 5 5 4 5 4 4 4 4 4 4
0 2 1 2 0 0 3 1 2 2 1 1 1 3 1 1 1 1 0 1 3 2 8 1 2 1 5 13 3 1 5 5 6 8 6 6 6 6 6 7 6 8 7 8 9 11 11 11 10 9 10 8 8 8 8 7 6 6 6 6 6 6 6 5 6 6 5 5 7 8 6 6 4 7 6 6 6 6 5 4 4 5 4 4 4 3
1 0 2 1 2 3 1 0 3 4 1 1 1 1 0 0 1 1 0 1 2 0 7 2 4 2 6 10 9 1 0 5 3 1 4 7 7 6 6 5 7 6 5 6 8 8 8 8 8 8 7 8 8 7 7 6 6 6 6 7 7 6 6 6 6 6 5 5 6 7 6 8 7 7 6 6 6 5 4 5 4 4 5 5 4 4
1 2 2 1 1 1 2 0 0 3 1 0 2 1 1 0 1 0 1 1 1 1 9 1 1 1 4 8 7 3 2 1 1 0 1 4 5 5 6 6 7 7 6 5 7 7 7 7 7 9 9 8 7 6 7 7 7 6 7 7 7 7 6 6 6 5 5 5 5 6 7 8 9 8 8 8 6 6 5 5 4 4 5 4 4 4
2 1 0 0 1 2 3 2 2 1 1 0 0 1 2 1 0 0 1 0 0 5 0 2 1 1 4 8 5 3 2 1 1 3 0 5 5 6 6 6 6 6 7 6 7 7 8 7 7 8 9 8 8 7 7 6 7 7 7 7 8 6 6 6 6 5 5 5 5 5 7 8 8 9 8 9 9 7 6 6 6 5 6 4 4 4
2 3 1 2 4 2 2 2 0 0 1 0 0 1 2 2 1 1 1 1 4 6 0 0 0 3 7 12 11 14 15 14 3 1 2 1 5 6 6 7 7 6 7 8 7 8 8 9 10 9 8 8 8 9 9 9 8 7 7 8 9 7 6 6 5 6 5 5 5 6 7 6 7 7 7 7 7 6 7 7 6 6 6 6 5 4
1 2 1 2 1 2 1 2 1 1 1 1 2 2 2 1 1 3 3 3 2 0 3 1 1 2 6 9 10 14 9 2 1 2 1 1 1 3 6 6 6 7 7 7 8 8 8 9 8 8 9 9 9 8 9 8 8 7 7 7 8 7 6 5 5 5 5 5 5 5 6 6 7 7 7 7 7 7 6 6 7 6 6 6 5 5
3 2 2 3 2 1 1 0 1 1 5 5 1 1 2 2 0 1 1 2 3 1 1 4 1 6 0 4 1 2 3 1 2 2 1 1 1 3 4 4 5 6 6 6 7 8 9 8 8 9 9 9 9 9 9 8 7 7 7 7 7 7 6 6 6 5 6 5 5 5 5 6 5 6 7 6 6 6 7 6 6 6 6 6 5 5
5 3 1 1 1 0 2 1 0 1 1 1 1 3 2 3 0 3 1 0 3 4 2 1 5 3 6 5 5 2 2 1 1 1 0 1 2 1 3 5 5 5 6 6 6 7 6 7 8 7 8 8 8 9 8 8 7 7 7 7 7 8 7 7 6 6 6 6 5 5 6 5 5 5 5 6 5 5 5 6 7 7 6 6 6 5
2 3 0 1 3 0 1 1 0 1 1 1 2 2 1 1 0 1 1 0 0 1 8 3 5 7 6 8 10 4 2 3 2 1 2 3 3 2 3 4 5 5 5 5 6 7 8 7 8 8 9 8 8 8 9 9 9 9 8 8 8 8 6 7 6 6 6 6 6 5 5 5 6 6 7 7 6 6 6 6 6 7 7 6 5 5
1 2 1 2 1 1 0 1 1 1 0 1 1 2 3 1 0 2 2 0 2 4 4 5 6 6 2 8 2 1 1 4 4 5 5 3 4 5 6 5 6 6 6 6 6 6 8 9 9 8 6 7 8 8 8 8 6 7 7 8 9 8 9 7 7 7 7 7 7 6 6 5 5 6 6 6 7 6 7 6 6 6 7 6 5 4
2 4 1 1 2 1 1 1 1 0 0 1 1 0 1 1 0 2 1 2 1 4 4 3 6 5 6 9 2 4 3 5 6 4 3 4 5 6 6 6 5 5 5 6 7 7 8 8 8 8 8 7 6 6 6 6 7 6 6 6 8 9 8 8 7 6 6 6 5 6 6 6 6 5 6 5 6 6 7 7 7 6 6 6 5 6
1 1 1 2 0 2 1 1 3 1 0 0 1 2 0 1 3 1 4 2 1 5 3 5 2 6 5 6 4 5 5 1 3 4 5 6 7 6 6 6 6 7 7 7 8 7 7 7 7 8 8 8 8 7 7 7 6 7 7 7 6 6 6 6 7 7 7 6 6 6 5 5 4 5 5 5 6 7 6 6 6 7 7 6 5 5
1 3 4 0 4 1 2 5 6 9 6 1 1 1 1 2 2 1 2 2 2 2 2 4 9 4 7 5 6 6 1 2 2 4 5 6 6 6 6 7 7 8 8 8 8 8 7 7 6 6 5 5 5 5 5 6 7 7 6 7 7 9 9 8 7 7 6 6 6 6 6 6 6 6 5 6 6 6 6 6 7 6 5 6 5 5
2 2 4 2 0 2 6 0 0 1 3 8 10 7 9 6 1 1 9 1 1 2 4 2 13 6 2 2 2 1 2 1 1 1 2 1 4 6 6 6 7 7 7 7 7 6 6 6 6 5 5 5 6 6 7 6 6 7 7 7 7 7 7 8 8 7 7 6 6 7 7 6 6 6 6 6 6 7 7 6 6 5 6 6 5 6
1 1 0 4 4 6 1 0 0 1 1 1 4 3 5 5 2 2 2 4 1 3 2 1 3 13 8 9 7 6 3 1 0 1 4 3 3 3 6 6 6 7 7 7 6 6 6 6 7 8 9 9 9 8 8 7 8 8 7 7 7 8 8 7 7 6 7 7 7 7 7 7 7 7 7 7 6 7 6 6 6 6 7 7 6 6
2 1 1 5 0 1 1 0 0 0 1 1 3 2 1 6 6 5 2 1 1 0 1 2 4 9 0 1 2 1 2 2 3 2 4 4 5 4 2 5 6 6 5 5 5 5 6 5 5 6 7 9 8 8 9 7 6 7 7 7 7 9 8 8 7 7 8 7 8 8 8 8 7 8 8 8 7 8 7 7 7 7 8 7 7 8
2 4 3 2 2 2 1 0 1 1 0 3 3 4 5 2 1 1 2 1 2 6 5 4 12 12 0 1 3 2 4 5 6 5 5 6 6 5 5 4 5 5 5 5 6 6 6 6 8 9 7 8 8 7 8 9 9 8 9 8 9 8 7 7 7 8 8 8 9 9 9 9 8 9 9 9 9 9 9 8 8 7 8 8 8 7
1 2 5 3 5 4 3 3 4 4 7 3 3 2 5 9 7 1 3 3 5 4 11 6 10 18 10 5 9 7 4 5 5 5 5 6 7 5 5 5 5 5 6 6 6 6 9 9 6 6 7 7 8 8 8 8 8 8 8 9 8 9 9 9 8 9 9 9 10 10 10 10 9 10 10 10 9 10 9 8 8 8 7 8 9 8
1 1 2 6 7 9 8 2 0 3 4 3 3 6 5 6 7 6 1 1 10 6 8 12 13 20 18 16 15 17 7 5 7 5 7 7 7 7 5 5 5 5 6 7 7 7 5 6 10 10 8 8 7 8 9 9 10 9 9 10 10 10 10 10 10 10 10 10 10 9 10 10 10 9 9 9 9 8 8 8 8 8 9 8 9 9
0 2 7 6 8 11 2 1 3 4 3 3 5 5 6 6 7 10 11 14 6 3 14 11 13 15 21 19 20 21 15 6 7 7 5 5 6 7 7 5 4 4 5 5 5 7 10 11 9 9 11 11 11 10 9 9 11 11 12 13 11 10 10 9 10 10 10 9 9 9 10 9 8 8 8 8 8 8 8 8 8 8 8 8 9 9
1 3 4 5 11 10 8 8 4 4 5 5 5 5 6 9 9 15 18 17 5 9 17 13 6 12 15 14 20 19 17 7 5 6 5 2 3 4 3 5 6 7 7 7 8 9 9 10 10 12 11 12 10 11 11 10 10 9 9 9 9 9 10 10 10 10 10 9 10 10 9 8 7 7 8 8 9 9 9 8 8 8 8 8 8 7
1 5 4 2 5 5 8 5 2 6 4 3 6 7 8 10 20 19 15 14 14 17 16 16 18 18 14 21 25 23 21 13 7 6 6 6 5 5 5 6 6 8 8 9 10 10 10 11 10 11 10 9 11 12 12 11 11 11 12 11 10 10 9 10 11 11 11 11 10 9 9 9 8 9 9 10 10 9 9 9 9 9 8 8 8 8
3 6 3 0 1 6 8 6 3 5 4 7 5 6 12 19 14 8 14 15 14 18 17 24 20 17 21 25 24 24 22 15 8 12 12 11 8 7 8 8 8 7 8 9 9 9 9 9 9 9 10 11 12 13 12 12 11 10 10 10 11 11 10 10 10 11 11 12 10 10 10 10 10 10 11 10 10 9 10 10 9 9 9 9 8 9
3 4 1 0 2 5 3 1 1 1 1 1 3 11 20 17 8 12 14 16 12 18 19 9 9 16 23 24 19 16 17 17 13 12 10 8 8 7 8 8 7 7 7 7 8 7 7 8 9 10 12 12 13 13 12 12 11 11 13 11 11 10 8 10 10 11 10 10 10 10 11 11 11 11 11 11 11 10 10 9 9 9 9 9 9 8
6 2 2 1 3 5 3 1 0 1 3 4 7 21 24 16 15 13 11 7 13 17 10 7 18 20 20 15 12 15 12 7 6 8 7 8 8 8 8 8 8 7 7 6 6 7 8 9 10 11 11 10 11 12 13 13 11 13 13 13 12 9 10 11 11 10 10 10 11 11 11 11 12 12 11 11 11 10 10 10 10 10 10 10 9 8
5 4 2 2 3 2 1 2 1 4 11 14 8 13 13 16 17 17 17 19 18 9 14 16 19 17 13 15 15 18 17 6 8 8 6 8 7 6 6 6 7 7 6 6 6 7 7 7 7 8 10 11 11 12 12 12 14 13 11 10 9 12 12 12 12 12 12 11 12 12 12 12 12 12 12 11 11 11 11 11 11 10 9 9 9 9
6 5 4 1 1 3 1 2 6 15 16 4 7 13 16 19 13 17 21 16 15 14 17 19 20 21 24 21 18 16 11 5 2 2 3 3 4 6 7 8 9 8 7 7 7 7 6 6 6 6 6 7 9 8 7 9 9 7 8 10 11 11 12 12 12 11 11 12 11 11 12 12 12 12 12 12 12 11 11 12 11 11 10 10 10 10
6 7 2 2 2 0 1 3 3 11 0 1 1 1 3 3 1 2 12 14 15 15 15 19 25 24 24 22 19 16 8 5 2 5 9 8 7 8 8 9 10 7 8 9 8 7 6 6 7 7 8 5 5 6 8 10 8 9 10 9 12 11 11 11 12 12 11 12 12 13 13 13 13 13 12 13 12 13 13 12 12 12 10 10 8 7
4 3 3 4 3 4 4 8 16 9 18 15 8 5 4 6 7 10 11 15 14 16 16 20 25 20 18 18 18 13 1 0 4 10 11 9 10 11 11 12 10 10 10 8 6 6 3 2 2 4 4 4 6 7 9 7 8 9 8 10 10 11 11 12 13 14 14 14 14 14 13 13 14 13 13 13 14 14 13 13 12 11 10 10 10 10
2 7 2 4 5 8 5 7 7 5 14 7 10 18 15 11 6 3 2 10 6 8 14 19 21 18 15 15 14 2 3 1 9 13 9 7 11 8 8 9 8 7 6 5 2 1 0 0 0 0 2 5 6 8 7 8 10 10 11 11 11 12 12 13 15 15 14 14 14 13 13 13 14 14 14 14 15 14 13 11 10 11 10 11 11 10
3 2 1 6 3 3 6 6 8 7 11 4 10 5 1 1 8 4 2 13 5 13 16 14 16 16 13 12 5 8 4 4 11 13 7 5 5 7 9 9 9 8 5 3 2 3 0 0 1 2 3 4 6 7 7 9 10 10 11 11 12 12 13 15 15 14 15 14 12 12 12 12 12 13 14 14 13 13 13 13 12 10 9 9 9 9
2 1 1 3 5 8 5 4 13 7 9 2 4 2 3 5 7 6 3 12 10 15 9 7 13 15 12 6 7 8 9 8 11 12 7 9 9 9 10 9 7 5 3 1 0 1 1 1 1 1 4 6 8 5 7 8 9 11 11 11 10 12 15 16 14 11 9 9 10 10 11 10 12 12 12 12 11 11 11 10 10 11 11 10 9 9
3 4 7 17 12 6 5 12 9 13 5 4 3 4 5 2 5 5 10 17 4 7 9 6 9 10 7 4 9 8 12 13 10 6 3 5 3 2 1 1 3 4 5 3 4 3 3 3 4 6 6 6 4 5 6 8 9 11 10 9 10 15 16 9 7 8 8 8 9 10 11 10 11 12 11 11 11 10 10 10 11 11 11 11 9 10
1 2 3 0 5 11 14 14 17 12 4 9 1 11 6 6 3 11 13 3 1 5 3 6 8 8 6 9 9 10 9 11 7 2 3 5 7 4 5 4 2 1 2 3 5 4 4 4 4 5 4 4 5 6 7 8 9 9 8 9 13 14 5 6 7 7 8 10 10 10 10 10 10 10 10 10 10 11 10 9 9 10 10 9 9 10
12 9 8 10 6 1 3 10 7 15 2 17 11 3 1 5 12 9 4 3 3 4 6 6 7 7 5 7 10 11 10 7 8 10 9 7 5 5 5 5 5 6 5 4 4 5 4 4 5 5 5 3 4 5 6 8 9 8 8 11 13 5 6 7 8 9 9 9 10 10 10 9 11 10 8 9 10 11 9 9 8 8 8 8 8 9
8 5 4 7 7 9 10 12 12 8 5 11 18 11 11 16 9 6 4 5 4 5 4 5 5 7 6 8 9 10 10 8 5 5 5 5 5 5 4 5 5 4 5 6 6 6 6 6 5 5 4 5 5 6 7 9 10 9 10 13 5 7 7 8 8 9 9 9 9 9 9 9 8 8 8 10 10 10 11 8 8 7 7 6 7 6
14 14 11 9 10 11 10 11 7 4 12 15 17 11 11 19 16 10 6 7 5 4 4 3 6 5 6 6 5 3 5 6 8 6 4 5 5 5 5 6 6 7 7 7 7 6 6 8 7 6 5 6 7 6 8 8 11 10 13 8 7 8 9 9 9 9 9 9 9 8 7 7 8 8 7 7 9 11 11 11 8 11 5 8 7 5
8 19 11 8 11 8 15 11 7 4 8 15 14 11 10 11 11 11 10 9 4 4 6 6 4 4 2 3 4 5 5 6 5 6 5 5 6 5 4 5 5 5 5 4 4 6 6 5 5 6 8 7 7 7 6 7 8 11 9 4 7 8 9 10 9 9 9 8 8 9 9 10 9 8 8 9 7 9 7 11 12 12 11 11 11 9
4 2 5 12 9 4 17 10 11 18 7 8 16 15 11 8 8 6 7 9 8 6 6 6 6 5 5 3 5 7 8 6 5 7 6 6 6 6 6 6 6 6 6 7 7 5 5 5 6 8 8 8 6 6 5 5 7 6 3 7 7 8 8 9 10 9 8 9 10 9 10 13 10 7 7 9 8 8 8 9 11 12 11 10 11 11
5 8 11 16 8 11 23 14 7 13 12 13 14 12 14 17 15 9 6 5 6 5 6 8 6 6 5 7 9 7 9 6 6 7 7 7 6 5 6 6 6 5 6 6 5 6 5 7 8 8 7 8 6 6 7 6 7 4 5 7 7 8 9 9 10 10 10 12 12 11 11 11 11 13 10 9 10 10 10 8 10 10 11 12 12 13
4 8 7 6 11 18 20 20 6 4 11 14 10 10 11 9 7 8 10 11 11 11 11 9 7 9 6 8 5 5 8 9 5 5 7 6 5 5 5 5 5 5 5 5 4 6 8 7 8 7 7 7 5 6 6 4 3 5 6 7 7 9 10 9 9 10 12 12 12 11 11 11 10 11 11 9 7 6 6 9 10 10 7 3 2 8
7 11 4 5 11 15 17 13 6 9 14 19 21 16 13 13 11 12 11 11 11 13 13 12 8 3 3 2 2 3 6 5 2 0 3 3 3 4 5 5 5 5 5 4 3 5 5 5 6 6 6 4 4 5 5 5 4 4 4 7 8 9 10 10 10 11 12 12 12 8 9 8 6 6 9 10 9 7 7 8 8 5 9 8 8 8
11 17 9 10 14 19 16 13 8 13 17 20 16 4 7 6 6 8 11 12 10 5 2 2 4 2 1 3 5 4 4 4 4 4 4 4 5 5 5 5 6 6 6 4 3 4 5 6 4 4 3 2 3 4 5 5 4 4 4 6 7 9 10 12 12 13 12 12 9 7 10 6 7 6 6 6 6 5 10 9 6 10 10 9 11 10
Wind_Direction
34 171 173 204 207 24 44 21 3 356 304 273 288 291 258 273 283 228 86 78 268 275 246 245 250 257 267 271 271 255 252 225 228 229 223 217 214 211 200 195 194 191 196 174 164 155 139 141 143 143 143 143 143 155 150 151 152 152 156 148 163 168 164 157 158 167 172 173 186 166 174 174 164 140 126 97 83 76 66 29 24 20 21 12 20 8
276 305 247 110 59 342 1 322 315 271 236 350 318 313 290 265 273 319 120 193 155 39 291 307 294 277 278 282 276 271 242 244 233 225 226 223 216 215 214 205 193 187 120 123 120 128 125 138 141 141 144 148 147 165 159 161 160 154 156 156 164 161 167 170 175 179 190 184 178 170 182 154 139 143 136 121 103 116 88 57 35 27 14 24 31 7
145 217 99 70 51 273 279 325 302 349 17 52 213 286 335 276 276 110 83 171 145 171 267 304 314 287 281 279 275 266 258 253 237 226 223 210 215 215 211 218 204 156 155 152 151 147 147 145 148 148 154 163 161 160 165 166 155 156 159 164 158 163 172 192 182 179 165 118 55 114 135 121 91 73 104 109 112 103 89 77 53 27 28 25 36 17
247 212 62 18 309 2 252 275 357 312 297 218 198 126 221 228 74 294 290 284 185 178 271 339 303 288 280 268 268 266 248 249 249 270 250 191 201 211 211 197 199 190 162 170 167 164 157 158 157 153 157 166 151 154 160 165 160 159 163 165 156 168 174 166 134 107 105 99 85 76 90 106 110 136 114 113 120 118 99 73 59 34 38 36 33 34
218 64 188 298 278 280 247 274 248 172 263 211 217 232 258 332 350 177 306 329 293 207 32 300 279 281 251 276 304 325 7 2 275 257 317 354 41 65 44 5 197 193 170 172 168 164 158 161 168 165 167 156 154 165 167 164 160 163 172 163 158 164 158 147 133 123 117 109 87 84 70 82 89 98 124 125 115 112 106 87 62 28 41 51 39 35
267 129 53 243 248 257 274 299 244 116 311 222 46 49 16 40 357 346 335 341 356 332 250 26 352 292 326 328 299 288 329 289 259 222 252 234 221 234 231 211 298 217 168 174 174 172 167 165 159 155 158 154 161 168 168 161 155 160 162 151 144 146 133 142 153 140 139 143 140 131 129 136 149 161 176 165 161 154 121 130 120 74 47 56 51 39
309 237 298 167 234 158 271 271 227 122 208 35 265 325 355 30 65 348 347 31 330 288 266 101 87 285 302 288 279 272 250 248 152 203 233 218 219 214 217 193 200 220 172 175 164 161 163 166 158 162 161 162 163 170 153 150 150 144 142 146 145 146 142 148 158 154 154 152 152 163 167 167 172 169 160 127 117 122 129 124 119 101 53 55 68 43
137 137 112 344 96 223 182 244 233 144 98 243 262 302 307 17 22 23 63 163 237 282 289 148 160 210 306 288 260 250 251 261 231 232 224 212 200 195 194 197 191 199 198 177 171 168 169 169 167 167 166 165 166 148 139 140 143 143 149 149 148 140 143 154 161 173 176 166 167 172 187 185 181 154 152 137 122 118 121 121 120 95 76 62 61 64
190 149 202 132 280 130 216 213 312 336 162 222 245 309 11 18 32 349 127 277 240 9 294 99 271 95 249 268 297 253 279 294 273 250 216 205 194 181 183 189 187 190 197 173 167 169 170 171 170 160 161 162 139 148 152 156 153 142 144 143 134 140 149 169 169 178 199 184 172 171 146 110 120 130 133 124 117 122 124 120 117 116 114 82 65 62
278 143 172 351 150 217 133 342 4 1 132 253 286 237 280 142 345 147 255 202 301 124 269 209 205 189 275 274 304 284 356 281 267 2 203 189 184 176 178 180 171 183 181 162 161 161 165 163 160 155 144 134 148 146 143 143 139 140 143 146 145 153 158 171 173 176 196 178 154 152 147 138 137 131 127 130 135 135 136 133 136 130 120 117 86 63
82 138 210 133 220 103 135 53 5 21 130 273 268 278 188 116 182 168 169 211 16 253 256 205 196 119 303 269 246 233 227 202 319 15 81 145 147 161 170 168 168 175 171 151 147 151 151 156 152 142 139 137 131 137 141 146 148 150 152 156 156 165 160 169 174 167 179 163 161 158 157 152 149 150 146 143 143 144 142 146 139 123 120 109 109 93
165 50 301 58 109 98 124 90 325 283 352 257 353 4 351 357 349 21 308 74 150 271 255 282 154 170 175 292 279 204 188 170 215 270 257 170 174 170 173 170 170 168 166 157 147 149 143 129 134 139 139 143 145 141 149 156 155 158 162 160 156 163 164 168 168 160 169 162 155 149 153 155 157 155 156 155 155 159 156 152 142 134 113 104 101 91
262 193 114 72 300 144 208 111 327 216 263 26 313 28 73 283 25 333 54 328 207 223 243 355 79 344 247 240 271 290 291 297 276 156 132 164 182 175 177 170 175 158 160 164 162 154 155 157 158 158 152 149 159 166 164 167 165 164 165 166 160 171 166 166 161 159 160 151 155 154 152 153 153 152 153 155 152 157 153 151 143 138 132 128 106 96
295 16 207 87 31 238 247 167 211 3 260 181 111 160 112 297 235 251 232 217 197 304 256 178 286 241 266 281 245 251 256 189 73 67 69 66 25 194 181 172 164 165 168 172 165 166 171 169 170 165 163 167 169 171 170 169 168 170 169 169 166 169 162 157 155 156 152 153 150 145 147 151 151 155 152 153 150 150 151 149 145 141 142 135 137 124
320 334 225 160 242 77 215 161 194 156 145 210 131 108 179 138 143 253 293 249 263 255 236 306 35 235 152 244 224 190 150 181 118 99 110 8 227 301 186 153 148 157 178 173 172 176 177 178 173 171 172 173 175 173 173 172 173 167 170 168 163 157 162 158 160 154 153 150 144 138 139 141 143 144 140 143 146 147 143 142 135 128 122 122 122 119
203 206 299 319 241 293 163 18 289 351 75 231 173 80 69 220 127 203 203 297 295 341 334 254 208 217 201 262 269 163 144 272 172 119 106 236 268 305 130 157 167 178 178 184 180 177 182 177 177 174 177 178 176 175 173 173 170 170 172 166 164 164 163 161 158 158 152 148 139 139 143 145 139 135 123 123 124 127 129 131 129 128 125 125 121 117
35 272 328 143 276 5 28 297 171 51 171 255 71 223 204 282 106 317 355 58 68 86 252 192 291 289 286 288 278 263 191 269 117 240 179 241 206 187 216 192 190 194 185 187 185 183 182 179 186 185 179 176 173 174 178 178 176 172 166 164 162 162 160 160 159 152 147 145 140 146 143 141 140 139 143 146 140 135 128 125 126 123 123 118 118 118
169 262 324 243 218 281 289 3 297 276 85 70 158 244 281 202 124 126 240 331 278 248 269 169 236 281 3 295 308 46 321 266 213 227 223 203 191 192 227 218 202 199 196 188 192 193 190 187 185 182 181 177 178 176 173 176 169 171 169 167 162 162 162 164 156 153 153 150 148 148 144 143 145 144 143 142 140 136 127 124 118 118 116 123 125 116
113 309 243 284 82 193 234 241 313 308 48 116 189 229 41 242 342 270 99 289 257 256 276 255 227 234 188 256 306 301 245 256 233 210 198 220 203 220 226 228 217 197 180 184 193 194 193 188 186 182 179 175 171 171 171 161 160 159 164 168 166 167 165 160 154 148 145 148 150 152 153 151 144 138 136 135 132 129 127 128 128 122 122 118 121 119
89 201 293 284 26 151 126 138 232 255 342 314 26 350 230 89 223 137 201 211 109 259 337 283 217 257 199 231 215 239 235 265 179 195 221 226 215 215 214 211 205 202 200 198 198 200 196 191 186 180 174 172 170 167 166 160 159 166 167 160 157 152 150 150 152 153 154 153 146 145 137 135 131 130 134 138 136 132 132 133 129 127 128 133 126 125
178 121 261 306 293 3 264 177 221 160 155 84 121 280 20 218 222 144 299 182 186 235 230 303 293 227 221 224 226 224 227 278 218 213 224 224 221 209 205 201 205 205 206 205 202 196 192 188 180 172 166 159 150 152 154 162 169 166 161 165 164 163 162 163 161 155 157 147 147 145 146 143 138 136 136 134 133 131 131 129 127 128 128 115 113 112
120 118 206 118 330 215 237 355 25 142 174 176 165 202 182 143 140 146 272 128 218 152 250 214 270 247 239 334 209 198 261 258 197 177 239 234 213 207 205 207 197 208 213 208 203 192 186 177 169 159 152 152 154 162 165 165 161 170 173 173 166 162 171 165 165 162 152 148 147 150 148 144 140 142 142 138 136 132 131 127 124 122 110 108 105 98
144 139 216 234 202 212 207 40 331 49 69 162 164 222 160 188 148 166 222 261 14 256 93 200 272 284 193 216 240 255 259 242 137 164 242 263 283 241 208 202 207 202 205 203 195 188 181 179 177 173 169 172 172 171 169 172 178 178 175 173 174 169 176 168 164 155 151 152 155 155 151 149 150 148 147 140 135 129 126 122 119 120 119 117 114 106
101 140 258 273 339 347 205 221 31 47 352 345 289 227 51 191 196 200 177 142 196 176 93 270 262 248 20 340 282 301 324 308 302 226 228 258 262 282 241 203 201 206 209 191 184 176 176 174 169 165 179 176 177 178 180 179 177 176 180 178 171 177 172 166 164 156 155 155 158 156 154 156 153 150 148 143 143 139 137 136 136 134 129 129 124 121
121 257 157 298 321 325 336 345 335 337 58 232 229 205 208 262 50 135 101 237 298 196 169 216 250 277 257 319 287 297 293 287 272 258 209 242 261 243 256 223 203 195 183 182 182 180 166 172 184 192 186 186 186 184 183 183 186 181 184 179 181 179 172 167 163 160 162 162 162 163 162 162 160 159 157 154 151 148 144 143 138 134 134 129 123 121
130 233 128 163 205 242 249 273 244 230 221 206 236 177 194 195 211 142 270 202 220 238 186 208 251 262 261 295 294 270 259 284 273 247 218 213 232 239 232 237 207 182 195 194 189 176 191 192 184 187 196 196 194 189 188 189 188 188 186 188 181 177 174 175 166 168 167 170 169 170 169 167 165 168 163 156 153 150 146 142 139 137 134 133 129 126
217 312 220 205 194 219 219 197 264 106 83 181 233 177 206 207 210 200 272 246 214 221 213 226 235 268 283 279 277 278 250 248 275 265 234 235 235 233 223 220 212 201 200 201 199 200 186 186 198 201 194 195 196 194 194 190 190 189 187 188 187 185 178 175 170 172 174 174 174 171 174 172 173 166 161 156 153 148 146 145 144 142 143 141 135 134
35 279 247 240 249 246 210 160 174 175 186 209 153 218 206 188 189 189 195 225 197 236 258 236 236 254 263 275 275 275 273 246 255 259 259 248 231 216 222 218 217 220 222 216 206 198 202 209 207 201 200 195 197 194 193 193 195 193 191 192 187 183 178 176 173 175 176 175 176 178 176 174 167 162 156 151 149 148 146 144 143 141 138 135 135 136
185 223 252 191 254 258 262 264 212 208 209 212 206 195 193 203 193 202 221 228 181 209 243 258 209 234 256 263 266 269 273 252 240 256 261 223 164 165 164 190 210 221 226 216 221 213 210 211 210 208 205 204 195 195 196 194 197 196 197 195 188 183 185 175 173 176 177 177 180 181 172 163 159 151 149 151 149 150 150 147 142 139 137 136 135 135
35 250 259 255 291 291 282 278 233 222 248 220 221 231 230 214 218 213 227 227 221 237 245 260 261 257 266 269 268 270 274 272 268 269 274 262 240 215 222 239 230 227 224 223 224 221 216 217 214 212 207 202 199 200 198 199 198 197 196 195 189 186 184 170 180 178 179 182 182 171 166 162 157 156 153 154 157 155 151 148 147 143 140 140 138 136
140 277 85 71 291 270 268 259 240 227 246 253 252 255 242 240 242 216 231 239 232 251 253 253 261 277 267 256 262 268 272 281 280 268 262 259 251 241 242 243 241 236 231 228 229 225 223 221 218 212 207 208 205 205 202 203 200 197 199 196 191 191 183 175 179 183 182 184 175 170 163 162 163 157 162 160 155 156 153 152 149 145 141 140 139 138
137 263 61 47 308 283 295 42 231 278 357 265 269 260 251 244 241 231 222 222 207 232 239 255 275 253 258 261 259 260 268 269 264 263 257 245 234 228 221 224 228 235 239 234 231 227 225 223 218 213 212 211 208 205 203 201 198 195 202 193 192 186 171 179 184 185 185 180 172 170 168 166 162 163 164 161 162 158 155 150 150 149 146 143 141 141
184 196 221 199 236 246 266 171 115 219 27 287 215 233 236 236 224 246 249 256 221 222 241 221 241 242 250 266 284 275 253 258 270 247 250 245 222 199 197 212 222 234 242 241 237 228 222 219 217 215 217 214 210 206 208 200 194 202 198 192 190 166 175 183 185 184 183 181 176 175 172 169 169 169 167 166 160 157 155 156 154 153 152 152 148 142
161 203 204 172 223 216 289 313 5 348 273 246 209 219 216 230 224 228 240 231 233 177 221 220 242 261 272 265 254 260 273 259 231 249 218 210 210 202 214 216 226 235 244 241 234 234 233 226 223 220 216 214 212 208 206 194 200 204 192 183 168 175 182 182 186 185 186 182 183 178 174 173 171 172 170 163 161 159 160 160 161 156 152 148 150 149
181 178 224 229 230 265 58 15 330 261 258 254 209 197 204 223 230 223 240 238 239 222 235 253 255 254 252 255 256 261 265 273 222 241 277 234 167 185 214 238 247 246 243 244 249 245 240 228 224 225 225 222 215 206 187 198 200 177 170 172 178 183 181 187 186 189 188 188 185 179 177 175 175 173 169 166 163 163 164 163 159 158 159 157 157 155
184 170 189 250 198 325 118 148 243 249 247 276 327 89 63 82 130 352 287 250 236 228 217 238 245 245 251 258 266 264 275 254 285 264 250 237 199 208 222 239 247 236 234 234 228 235 227 221 216 214 226 218 195 194 189 197 180 173 183 171 180 182 186 185 189 192 190 191 187 185 182 179 178 173 170 169 168 168 168 167 166 160 157 152 149 146
164 161 195 250 141 202 189 205 236 313 311 266 275 258 166 205 185 180 243 264 199 221 214 235 247 246 252 258 257 270 89 20 314 279 249 234 232 218 216 233 230 228 221 230 206 213 189 176 196 223 211 182 189 185 199 183 171 174 165 176 186 182 187 186 195 197 195 194 189 188 184 182 178 176 174 172 171 172 171 167 164 160 156 152 153 150
22 174 216 164 257 187 252 280 289 286 258 284 180 231 202 213 155 151 172 296 137 214 211 222 243 247 244 251 257 249 111 344 293 269 265 240 233 221 214 222 227 224 222 211 177 149 129 35 20 347 175 192 197 200 184 171 170 171 177 186 184 184 191 194 204 200 196 196 191 187 184 183 180 178 176 176 178 174 170 164 160 161 160 157 154 152
339 80 39 178 274 134 209 219 242 235 251 159 223 240 19 92 107 101 33 274 195 222 227 212 237 249 236 235 227 121 146 240 255 259 264 248 199 185 190 213 214 216 214 200 201 234 235 301 237 234 196 184 207 206 177 171 169 174 188 189 189 190 195 205 207 199 199 196 188 186 184 183 182 180 178 180 178 172 168 167 164 156 154 152 147 144
116 239 167 303 232 223 212 243 252 218 253 262 222 232 195 130 114 66 273 268 229 220 230 208 224 245 252 211 162 163 168 226 250 258 219 202 187 185 179 193 205 203 181 130 129 185 202 191 163 209 200 207 219 184 173 167 174 188 192 197 187 194 208 211 206 198 193 185 182 182 182 182 182 181 180 178 172 169 168 157 153 158 154 150 146 142
165 228 189 218 214 220 223 256 279 271 217 177 211 202 169 155 96 145 223 259 241 191 226 196 223 232 230 167 158 185 217 214 228 233 185 160 110 197 271 177 167 162 181 184 215 174 193 214 207 221 222 228 204 170 172 169 179 198 201 191 193 211 215 204 183 183 178 173 175 178 180 179 180 179 178 175 171 163 158 160 159 155 153 147 143 140
255 105 253 120 239 204 220 225 244 273 231 133 265 156 179 103 226 219 237 234 129 234 246 196 212 230 203 182 193 212 225 226 234 121 168 216 193 200 193 190 167 200 217 199 189 180 207 222 228 244 253 226 176 171 171 175 192 206 198 196 213 218 183 168 176 167 169 173 176 176 176 176 175 174 173 166 160 160 159 156 153 154 147 142 136 135
183 154 199 184 207 258 244 245 276 267 191 161 146 104 286 177 232 229 255 276 201 197 200 234 214 239 181 213 211 216 230 237 219 212 215 213 210 211 189 176 194 208 219 218 231 217 189 220 224 225 225 200 173 172 180 179 200 205 201 212 220 179 164 170 166 167 170 171 172 174 173 172 170 169 165 162 162 155 143 150 140 134 127 124 124 124
168 153 196 207 185 169 201 206 220 216 158 159 144 187 202 213 218 209 196 262 243 193 195 222 243 226 211 207 212 225 227 230 261 245 226 228 225 242 221 218 220 224 229 223 211 202 187 214 216 215 208 188 183 184 182 185 201 205 207 222 175 157 158 158 159 159 162 165 166 164 166 161 156 150 149 155 151 144 123 121 126 122 137 114 120 124
181 201 172 194 194 194 217 229 220 165 165 183 196 208 201 213 226 230 216 228 225 244 205 178 240 242 222 226 256 261 276 248 235 234 212 236 221 220 228 230 220 225 226 221 216 196 187 204 211 204 205 200 192 193 193 194 202 207 218 211 150 167 159 156 154 155 160 159 156 150 140 133 137 138 143 146 141 147 144 128 140 124 127 120 119 117
187 199 198 228 232 223 255 244 99 193 188 205 220 219 216 225 234 237 237 253 241 210 179 195 216 227 220 202 220 261 228 247 265 285 281 281 276 273 263 266 256 235 232 216 209 192 198 196 201 198 215 215 199 198 198 204 202 213 222 156 163 157 156 152 152 156 157 152 147 143 138 127 110 105 111 107 112 111 102 127 130 127 110 116 106 99
238 201 206 231 233 202 257 215 194 237 221 208 230 238 252 247 234 215 233 238 249 238 234 224 216 223 202 171 209 229 249 235 244 261 263 267 271 267 265 258 255 237 224 225 222 178 189 187 207 218 216 223 206 196 203 205 221 224 186 163 154 151 148 150 153 153 149 146 130 127 129 120 121 117 112 107 101 95 108 106 111 129 143 148 150 151
279 186 210 233 225 209 250 246 179 227 234 219 217 228 239 244 252 253 236 229 234 245 232 237 226 242 221 230 231 239 256 252 232 248 261 258 254 262 267 267 265 267 247 227 212 187 193 200 216 223 216 224 201 186 193 201 213 195 149 145 143 143 144 152 159 154 148 133 123 120 124 113 127 126 100 109 115 126 124 100 91 142 152 158 156 147
181 125 229 174 220 243 259 264 249 285 277 264 246 232 244 251 250 251 254 254 249 251 256 252 220 231 227 238 232 229 253 259 238 228 250 264 272 269 269 273 274 259 255 241 216 187 205 214 223 225 218 223 186 178 184 187 146 132 147 141 140 145 149 150 142 138 125 120 112 121 109 109 105 101 112 111 100 78 89 132 136 121 97 65 45 160
137 221 204 124 229 243 241 244 162 230 252 258 254 247 246 245 236 240 245 250 248 250 249 256 262 251 216 249 246 231 242 276 316 330 273 287 302 308 317 317 313 312 295 265 218 206 221 225 222 222 220 206 161 158 142 103 77 70 98 139 147 148 147 143 135 129 121 123 118 124 123 116 112 110 101 104 107 113 97 105 116 130 135 131 139 130
192 228 203 213 225 252 253 248 202 228 246 251 264 244 221 247 255 245 242 246 258 282 336 295 285 323 28 18 39 60 23 15 350 6 355 345 335 334 331 332 329 324 316 294 255 248 227 236 230 223 197 116 89 98 93 74 67 60 98 143 151 150 145 143 136 117 123 124 125 130 117 115 116 122 109 115 116 113 123 123 131 132 133 131 144 146